Location: Jihlava
(49.4000°N, 15.5830°E)
Time: 11:22:37
(UTC+01:00)

ISS - Visible Passes

Search period start: 25 March 2019 00:00
Search period end: 04 April 2019 01:00
Orbit: 408 x 411 km, 51.6° (Epoch: 25 March)

Date Brightness Start Highest point End Pass type
(mag) Time Alt. Az. Time Alt. Az. Time Alt. Az.
25 Mar -3.0 18:41:59 10° SSW 18:45:00 34° SSE 18:48:02 10° E visible
25 Mar -3.7 20:18:09 10° W 20:21:28 72° NNW 20:21:38 69° NNE visible
26 Mar -3.9 19:27:31 10° WSW 19:30:49 89° S 19:33:16 17° ENE visible
26 Mar -1.7 21:04:19 10° W 21:06:02 27° WNW 21:06:02 27° WNW visible
27 Mar -3.4 20:13:36 10° W 20:16:53 57° N 20:17:33 45° NE visible
28 Mar -3.5 19:22:53 10° W 19:26:11 65° N 19:29:00 13° ENE visible
28 Mar -2.1 20:59:42 10° WNW 21:01:45 34° WNW 21:01:45 34° WNW visible
29 Mar -3.4 20:09:00 10° WNW 20:12:17 56° N 20:13:09 40° ENE visible
29 Mar -0.5 21:45:40 10° WNW 21:45:54 12° WNW 21:45:54 12° WNW visible
30 Mar -3.3 19:18:16 10° W 19:21:32 55° N 19:24:30 12° ENE visible
30 Mar -2.5 20:54:58 10° WNW 20:57:16 41° WNW 20:57:16 41° WNW visible
31 Mar -3.7 21:04:17 10° WNW 21:07:36 69° NNE 21:08:35 41° E visible
31 Mar -0.7 22:40:59 10° W 22:41:21 12° W 22:41:21 12° W visible
01 Apr -3.4 20:13:34 10° WNW 20:16:51 59° N 20:19:54 11° E visible
01 Apr -2.7 21:50:13 10° WNW 21:52:40 41° WSW 21:52:40 41° WSW visible
02 Apr -3.9 20:59:29 10° WNW 21:02:48 80° SSW 21:03:59 37° ESE visible
02 Apr -0.7 22:36:35 10° W 22:36:44 11° W 22:36:44 11° W visible
03 Apr -3.7 20:08:46 10° WNW 20:12:05 78° NNE 20:15:19 11° ESE visible
03 Apr -2.3 21:45:33 10° W 21:48:04 28° SW 21:48:04 28° SW visible
